Regional Weather Roundup
Issued by NWS

Home | Current Version | Previous Version | Text Only | Print | Product List | Glossary Off
Versions: 1 2 3 4 5 6 7 8 9 10 11 12 13 14 15 16 17 18 19 20 21 22 23 24 25 26 27 28 29 30 31 32 33 34 35 36 37 38 39 40 41 42 43 44 45 46 47 48 49 50

000
ASUS43 KLOT 271610
RWRIL

ILLINOIS REGIONAL WEATHER ROUNDUP
NATIONAL WEATHER SERVICE CHICAGO/ROMEOVILLE IL
1100 AM CDT WED AUG 27 2014

NOTE: "FAIR" INDICATES FEW OR NO CLOUDS BELOW 12,000 FEET WITH NO
SIGNIFICANT WEATHER AND/OR OBSTRUCTIONS TO VISIBILITY.

* THESE STATIONS ARE NOT UNDER NWS QUALITY CONTROL. THEY ALSO MAY NOT
  REPORT WEATHER SUCH AS PRECIPITATION OR FOG.

ILZ001-002-007-009-015-016-024-271700-
NORTHWEST ILLINOIS

CITY           SKY/WX    TMP DP  RH WIND       PRES   REMARKS
MOLINE         CLOUDY    75  62  64 E5        30.15S
STERLING*      PTSUNNY   75  63  64 E6        30.16S
SAVANNA*       PTSUNNY   76  58  52 NE5       30.17R
$$

ILZ003-004-008-010-011-017-018-271700-
NORTH CENTRAL ILLINOIS

CITY           SKY/WX    TMP DP  RH WIND       PRES   REMARKS
ROCKFORD       PTSUNNY   77  59  53 E5        30.17F
FREEPORT*      MOSUNNY   73  63  71 CALM      30.20R
ROCHELLE*      PTSUNNY   73  62  67 CALM      30.17S
DE KALB*       PTSUNNY   73  60  64 E5        30.17F
PERU*          PTSUNNY   75  66  73 E5        30.15F
$$

ILZ005-006-012>014-019>023-271700-
NORTHEAST ILLINOIS

CITY           SKY/WX    TMP DP  RH WIND       PRES   REMARKS
CHICAGO-OHARE  PTSUNNY   76  61  59 SE7       30.14S
CHICAGO-MIDWAY PTSUNNY   76  62  62 VRB3      30.14S
AURORA         PTSUNNY   77  63  61 SE5       30.15F
LANSING*       MOSUNNY   75  62  62 CALM      30.15S
JOLIET*        PTSUNNY   75  63  66 CALM      30.15S
WAUKEGAN       PTSUNNY   71  63  75 NE7       30.16R
DUPAGE AIRPORT PTSUNNY   78  62  57 E3        30.15S HX  80
KANKAKEE*      SUNNY     77  65  66 NE6       30.14S
WHEELING       MOSUNNY   76  63  64 NE5       30.16S
MORRIS*        PTSUNNY   76  67  73 CALM      30.14S
ROMEOVILLE*    PTSUNNY   75  62  62 SE3       30.14F
NORTHERLY ISL    N/A     73  64  73 NE5         N/A
$$

LMZ740>746-271700-
SOUTHERN LAKE MICHIGAN

STATION/POSITION SKY/WX   TEMP    WIND        PRES    VSBY  WAVE
                          AIR SEA DIR/SP/G                  HT/PER
                          (F)     (DEG/KT/KT) (MB)    (MI)  (FT/S)
SOUTHERN BUOY              68 69   50/  6/  6 1021.5R         0
WAUKEGAN HARBOR            70      50/  4/  6   N/A
HARRISON CRIB              70      50/  5/  6   N/A
BURNHAM HARBOR             73      50/  4/  6   N/A
CALUMET HARBOR             71      40/  5/  6 1019.8R
MICHIGAN CITY              70     360/  8/ 10   N/A
MICHIGAN CITY 6N           71 74   50/  6/  8   N/A           1/ 2
ST. JOSEPH                 69 74   10/  8/ 10   N/A           1
$$

ILZ025>027-034>036-040-047-049-050-058-095>099-271700-
WEST-CENTRAL ILLINOIS

CITY           SKY/WX    TMP DP  RH WIND       PRES   REMARKS
QUINCY         CLOUDY    80  72  76 NE6       30.13R HX  84
GALESBURG*     CLOUDY    80  69  68 E5        30.15R HX  83
MACOMB*        CLOUDY    77  70  79 E5        30.16R
JACKSONVILLE*  MOSUNNY   84  74  71 SE5       30.13S HX  90
PITTSFIELD*    MOSUNNY   83  73  71 E5        30.13S HX  88
$$

ILZ028>032-037-038-041>044-048-051>054-059>061-271700-
CENTRAL ILLINOIS

CITY           SKY/WX    TMP DP  RH WIND       PRES   REMARKS
PONTIAC        MOSUNNY   81  68  65 E3        30.14S HX  83
DECATUR        MOSUNNY   82  72  71 CALM      30.13S HX  87
PEORIA         MOSUNNY   81  68  64 E8        30.13F HX  84
LACON*         MOSUNNY   78  67  69 E5        30.13S HX  80
LINCOLN*       MOSUNNY   80  73  80 E6        30.10S HAZE    HX  83
SPRINGFIELD    SUNNY     84  72  67 NE7       30.12S HX  89
TAYLORVILLE    SUNNY     81  72  74 S3        30.12S HX  84
$$

ILZ033-039-045-046-055>057-062-063-271700-
EAST-CENTRAL ILLINOIS

CITY           SKY/WX    TMP DP  RH WIND       PRES   REMARKS
CHAMPAIGN      MOSUNNY   80  73  79 E5        30.13S HX  84
DANVILLE*      MOSUNNY   79  73  82 E3        30.10F HX  82
RANTOUL*       MOSUNNY   80  72  76 N5        30.14S HX  84
MATTOON        SUNNY     84  71  65 CALM      30.12R HX  89
PARIS*         SUNNY     82  71  70 CALM      30.13S HX  86
$$

ILZ079-100>102-271700-
SOUTHWEST ILLINOIS

CITY           SKY/WX    TMP DP  RH WIND       PRES   REMARKS
ALTON          SUNNY     84  73  70 CALM      30.11F HX  91
BELLEVILLE     SUNNY     86  76  73 CALM      30.10S HX  96
SPARTA*        SUNNY     86  76  71 CALM      30.12S HX  96
$$

ILZ064>066-069>071-074>076-080>082-084>086-088>090-092>094-271700-
SOUTH-CENTRAL ILLINOIS

CITY           SKY/WX    TMP DP  RH WIND       PRES   REMARKS
CARBONDALE     SUNNY     87  76  69 E3        30.11S HX  97
CAIRO*         SUNNY     88  74  63 CALM      30.11S HX  97
EFFINGHAM*     SUNNY     85  65  52 CALM      30.12S HX  86
MARION         SUNNY     88  75  66 NE6       30.12S HX  97
MT. VERNON     SUNNY     86  73  66 CALM      30.12S HX  93
SALEM*         SUNNY     87  76  70 CALM      30.12S HX  97
METROPOLIS*    SUNNY     89  76  64 CALM      30.11  HX 100
$$

ILZ067-068-072-073-078-083-087-091-271700-
SOUTHEAST ILLINOIS

CITY           SKY/WX    TMP DP  RH WIND       PRES   REMARKS
LAWRENCEVILLE  SUNNY     86  75  69 CALM      30.12R HX  95
FLORA*         SUNNY     84  73  70 CALM      30.12S HX  90
FAIRFIELD*     SUNNY     88  79  74 CALM      30.11S HX 102
HARRISBURG*    SUNNY     87  74  65 CALM      30.12S HX  96
ROBINSON*      SUNNY     86  72  62 CALM      30.12S HX  93
CARMI*         SUNNY     88  79  74 N3        30.11R HX 102
$$

ABBREVIATIONS USED IN REMARKS
   TC - TEMPERATURE IN CELSIUS
  WCI - WIND CHILL INDEX
   HX - HEAT INDEX
  VSB - VISIBILITY
$$



USA.gov is the U.S. government's official web portal to all federal, state and local government web resources and services.